Location: Piotrkow Trybunalski
(51.4000°N, 19.6830°E)
Time: 12:59:57
(UTC+02:00)

A-11 Canister half - Pass Details

Date: 03 February 2023
Orbit: 1526 x 1682 km, 47.3° (Epoch: 26 March)

Event Time Altitude Azimuth Distance (km) Brightness Sun altitude
Rises 12:05:36 0° 287° (WNW) 4,721 11.4 22.0°
Reaches altitude 10° 12:09:06 10° 277° (W) 3,754 11.1 22.0°
Maximum altitude 12:16:53 30° 222° (SW) 2,562 11.3 21.9°
Drops below altitude 10° 12:24:53 10° 166° (SSE) 3,844 12.6 21.8°
Sets 12:28:32 0° 156° (SSE) 4,851 12.6 21.7°
